This demonstration page uses our WeatherBlox Daily Observations layout. Learn more.

Left ArrowRight Arrow

Hourly Observations for May 15, 2020

Temp ( °F °C ) Dew Point ( °F °C ) Humidity (%) Winds ( mph kmh ) Pressure ( in mb ) Visibility ( mi km ) Precip ( " mm )
12:15 am 00:15 Clear 58 14.5 48 8.8 69 69 NNE 10 17 29.86 1011 10 16.0934 0 0
12:35 am 00:35 Clear 57 13.8 47 8.6 71 71 NE 7 11 29.88 1012 10 16.0934 0 0
12:55 am 00:55 Clear 58 14.7 48 8.7 68 68 NE 10 17 29.88 1012 10 16.0934 0 0
1:15 am 01:15 Clear 59 15 48 8.7 66 66 ENE 10 17 29.89 1012 10 16.0934 0 0
1:35 am 01:35 Clear 58 14.5 47 8.6 68 68 NE 12 19 29.88 1012 10 16.0934 0 0
1:55 am 01:55 Clear 57 14.1 47 8.6 70 70 NE 10 17 29.88 1012 10 16.0934 0 0
2:15 am 02:15 Clear 56 13.5 47 8.5 72 72 NE 7 11 29.89 1012 10 16.0934 0 0
2:35 am 02:35 Clear 56 13.5 48 8.8 73 73 NE 10 17 29.87 1012 10 16.0934 0 0
2:55 am 02:55 Clear 56 13.5 48 8.9 74 74 NE 8 13 29.87 1012 10 16.0934 0 0
3:15 am 03:15 Clear 56 13.5 48 8.8 73 73 NE 7 11 29.87 1012 10 16.0934 0 0
3:35 am 03:35 Clear 56 13.4 48 8.8 74 74 ENE 3 6 29.89 1012 10 16.0934 0 0
3:55 am 03:55 Clear 55 12.8 48 8.7 76 76 ESE 3 6 29.91 1013 10 16.0934 0 0
4:15 am 04:15 Clear 54 12.2 47 8.5 78 78 Calm 29.92 1013 10 16.0934 0 0
4:35 am 04:35 Clear 54 12.3 47 8.6 78 78 NW 3 6 29.94 1014 10 16.0934 0 0
4:55 am 04:55 Mostly Cloudy 55 12.7 48 8.8 77 77 Calm 29.95 1014 10 16.0934 0 0
5:15 am 05:15 Cloudy 54 12.4 49 9.2 81 81 NNE 6 9 29.95 1014 10 16.0934 0 0
5:35 am 05:35 Mostly Cloudy 55 13 49 9.2 78 78 N 10 17 29.95 1014 10 16.0934 0 0
5:55 am 05:55 Partly Cloudy 55 12.8 49 9.2 79 79 NE 9 15 29.93 1013 10 16.0934 0 0
6:15 am 06:15 Mostly Cloudy 56 13.2 48 9.1 76 76 ENE 9 15 29.93 1014 10 16.0934 0 0
6:35 am 06:35 Cloudy 56 13.4 48 8.9 74 74 E 10 17 29.93 1014 10 16.0934 0 0
6:55 am 06:55 Mostly Cloudy with Light Rain 56 13.4 47 8.5 72 72 E 8 13 29.94 1014 10 16.0934 0 0
7:15 am 07:15 Mostly Cloudy with Drizzle 56 13.2 47 8.2 72 72 E 7 11 29.96 1015 10 16.0934 0 0
7:35 am 07:35 Cloudy with Light Rain 56 13.1 47 8.3 73 73 ESE 5 7 29.98 1015 10 16.0934 0 0
7:55 am 07:55 Cloudy with Drizzle 55 12.9 48 9.1 78 78 ENE 5 7 29.98 1015 10 16.0934 0 0
8:15 am 08:15 Cloudy 55 13 49 9.5 79 79 NE 8 13 29.99 1015 10 16.0934 0 0
8:35 am 08:35 Cloudy 56 13.2 50 9.8 80 80 ENE 8 13 29.98 1015 10 16.0934 0 0
8:55 am 08:55 Cloudy with Light Rain 56 13.5 49 9.3 76 76 ENE 7 11 29.99 1016 10 16.0934 0 0
9:15 am 09:15 Cloudy with Light Rain 56 13.5 49 9.4 76 76 ENE 10 17 29.99 1016 10 16.0934 0 0
9:35 am 09:35 Cloudy 56 13.5 49 9.6 77 77 ENE 10 17 29.99 1016 10 16.0934 0 0
9:55 am 09:55 Cloudy 57 13.9 49 9.6 75 75 ENE 13 20 29.98 1015 10 16.0934 0 0
10:15 am 10:15 Cloudy 58 14.6 49 9.4 71 71 E 12 19 29.97 1015 10 16.0934 0 0
10:35 am 10:35 Mostly Cloudy 61 16.3 49 9.7 65 65 E 13 20 29.96 1014 10 16.0934 0 0
10:55 am 10:55 Cloudy 63 17 49 9.7 62 62 E 12 19 29.94 1014 10 16.0934 0 0
11:15 am 11:15 Mostly Cloudy 65 18.6 47 8.5 52 52 E 14 22 29.93 1014 10 16.0934 0 0
11:35 am 11:35 Sunny 68 19.8 47 8.5 48 48 E 14 22 29.93 1014 10 16.0934 0 0
11:55 am 11:55 Partly Cloudy 69 20.6 47 8.6 46 46 E 15 24 29.92 1013 10 16.0934 0 0
12:15 pm 12:15 Partly Cloudy 70 21.1 46 8 43 43 E 12 19 29.92 1013 10 16.0934 0 0
12:35 pm 12:35 Mostly Cloudy 70 21.1 47 8.1 43 43 ESE 15 24 29.93 1013 10 16.0934 0 0
12:55 pm 12:55 Cloudy 71 21.5 47 8.1 42 42 E 12 19 29.91 1013 10 16.0934 0 0
1:15 pm 13:15 Mostly Cloudy 71 21.5 47 8.3 43 43 E 13 20 29.91 1013 10 16.0934 0 0
1:35 pm 13:35 Mostly Cloudy 72 22.3 47 8.3 41 41 SE 12 19 29.9 1012 10 16.0934 0 0
1:55 pm 13:55 Mostly Cloudy 73 22.6 47 8.1 40 40 ESE 13 20 29.89 1012 10 16.0934 0 0
2:15 pm 14:15 Partly Cloudy 72 22.2 47 8.1 41 41 ESE 12 19 29.88 1012 10 16.0934 0 0
2:35 pm 14:35 Partly Cloudy 74 23.6 46 8 37 37 SE 13 20 29.86 1011 10 16.0934 0 0
2:55 pm 14:55 Partly Cloudy 75 23.7 46 7.9 36 36 ESE 12 19 29.86 1011 10 16.0934 0 0
3:15 pm 15:15 Partly Cloudy 75 23.9 47 8.2 37 37 ESE 13 20 29.86 1011 10 16.0934 0 0
3:35 pm 15:35 Partly Cloudy 75 23.8 47 8.2 37 37 E 10 17 29.85 1011 10 16.0934 0 0
3:55 pm 15:55 Partly Cloudy 75 23.9 46 7.8 36 36 SE 6 9 29.85 1011 10 16.0934 0 0
4:15 pm 16:15 Mostly Cloudy 76 24.2 47 8.3 36 36 ESE 12 19 29.82 1010 10 16.0934 0 0
4:35 pm 16:35 Mostly Cloudy 74 23.6 46 7.9 37 37 ESE 12 19 29.82 1010 10 16.0934 0 0
4:55 pm 16:55 Partly Cloudy 75 24 46 7.9 36 36 SSE 9 15 29.81 1010 10 16.0934 0 0
5:15 pm 17:15 Partly Cloudy 76 24.2 46 7.8 35 35 SSE 8 13 29.8 1009 10 16.0934 0 0
5:35 pm 17:35 Partly Cloudy 76 24.4 47 8.3 36 36 SSE 14 22 29.79 1009 10 16.0934 0 0
5:55 pm 17:55 Sunny 74 23.5 46 7.5 36 36 SSE 13 20 29.8 1009 10 16.0934 0 0
6:15 pm 18:15 Partly Cloudy 74 23.2 46 7.6 37 37 SSE 6 9 29.8 1009 10 16.0934 0 0
6:35 pm 18:35 Partly Cloudy 73 23 46 7.9 38 38 SE 12 19 29.8 1009 10 16.0934 0 0
6:55 pm 18:55 Sunny 73 22.9 46 7.8 38 38 SE 9 15 29.79 1009 10 16.0934 0 0
7:15 pm 19:15 Sunny 74 23.6 45 7 34 34 SE 14 22 29.78 1008 10 16.0934 0 0
7:35 pm 19:35 Sunny 74 23.1 45 7.1 36 36 SE 12 19 29.77 1008 10 16.0934 0 0
7:55 pm 19:55 Sunny 73 22.8 45 7 36 36 SE 15 24 29.76 1008 10 16.0934 0 0
8:15 pm 20:15 Sunny 71 21.8 46 7.7 40 40 ESE 12 19 29.79 1009 10 16.0934 0 0
8:35 pm 20:35 Sunny 69 20.4 46 8 45 45 ESE 9 15 29.81 1010 10 16.0934 0 0
8:55 pm 20:55 Clear 66 18.9 46 7.6 48 48 SE 9 15 29.84 1010 10 16.0934 0 0
9:15 pm 21:15 Clear 64 17.7 46 7.5 51 51 SE 7 11 29.85 1011 10 16.0934 0 0
9:35 pm 21:35 Partly Cloudy 61 16.2 46 7.5 57 57 SE 8 13 29.87 1011 10 16.0934 0 0
9:55 pm 21:55 Partly Cloudy 59 15 46 7.5 61 61 ESE 6 9 29.9 1013 10 16.0934 0 0
10:15 pm 22:15 Partly Cloudy 59 14.8 45 7.3 61 61 ESE 8 13 29.92 1013 10 16.0934 0 0
10:35 pm 22:35 Partly Cloudy 57 14 45 7.4 65 65 ESE 9 15 29.93 1013 10 16.0934 0 0
10:55 pm 22:55 Clear 57 13.7 46 7.6 67 67 ESE 9 15 29.92 1013 10 16.0934 0 0
11:15 pm 23:15 Clear 58 14.5 47 8.3 67 67 ESE 10 17 29.9 1013 10 16.0934 0 0
11:35 pm 23:35 Clear 58 14.6 47 8.5 67 67 ESE 12 19 29.89 1012 10 16.0934 0 0
11:55 pm 23:55 Clear 58 14.3 48 9 71 71 ESE 12 19 29.89 1012 10 16.0934 0 0

Powered by AerisWeather